Regional Weather Roundup
Issued by NWS

Home | Current Version | Previous Version | Text Only | Print | Product List | Glossary On
Versions: 1 2 3 4 5 6 7 8 9 10 11 12 13 14 15 16 17 18 19 20 21 22 23 24 25 26 27 28 29 30 31 32 33 34 35 36 37 38 39 40 41 42 43 44 45 46 47 48 49 50
000
ASUS42 KFFC 011103
RWRGA
WEATHER ROUNDUP FOR GEORGIA
NATIONAL WEATHER SERVICE PEACHTREE CITY GA
700 AM EDT SAT AUG 01 2015

NOTE: "FAIR" INDICATES FEW OR NO CLOUDS BELOW 12,000 FEET WITH NO
SIGNIFICANT WEATHER AND/OR OBSTRUCTIONS TO VISIBILITY.

* = USE WITH CAUTION. THE STATIONS MARKED WITH AN ASTERISK MAY NOT
REPORT WEATHER SUCH AS PRECIPITATION, FOG, OR THUNDER AND ARE NOT
QUALITY CONTROLLED BY NWS.

THE REMARK "TC" DENOTES TEMPERATURE READING IN DEGREES CELSIUS.

GAZ001>058-011200-
NORTH GEORGIA

CITY           SKY/WX    TMP DP  RH WIND       PRES   REMARKS
ATLANTA        PTCLDY    76  63  64 NE8       29.96R
ATHENS         MOCLDY    73  62  68 NE6       29.95R
CHAMBLEE       CLOUDY    73  65  75 N5        29.96R
PEACHTREE CITY CLEAR     69  66  90 CALM      29.96R
ROME           PTCLDY    66  61  84 CALM      29.97R
WEST ATLANTA   PTCLDY    70  63  78 CALM      29.96R
GAINESVILLE    PTCLDY    72  62  71 NE6       30.00R
CARTERSVILLE   CLOUDY    67  61  81 CALM      29.98R


CITY           SKY/WX    TMP DP  RH WIND       PRES   REMARKS
DALTON*        PTCLDY    68  61  77 N5        29.98R
LAWRENCEVILLE* PTCLDY    73  57  56 NE8       29.95
MARIETTA       MOCLDY    72  62  71 N2        29.96R
BLAIRSVILLE*     N/A     63  55  77 CALM      30.05R
$$

GAZ059>098-102>109-011200-
CENTRAL GEORGIA

CITY           SKY/WX    TMP DP  RH WIND       PRES   REMARKS
AUGUSTA-BUSH   CLEAR     73  72  96 CALM      29.91R
AUGUSTA-DANIEL CLEAR     76  73  91 S3        29.93R
COLUMBUS       FOG       73  72  96 CALM      29.92R VSB 1/2
MACON          CLEAR     71  70  96 CALM      29.92S
ROBINS AFB     CLEAR     71  71 100 NE2       29.91S


CITY           SKY/WX    TMP DP  RH WIND       PRES   REMARKS
LAGRANGE*      CLEAR     71  71  99 CALM      29.95R
SYLVANIA*      FOG       72  72 100 CALM      29.92S VSB 3/4
MILLEDGEVILLE* MOCLDY    73  72  94 CALM      29.93R
$$

GAZ099>101-110>166-011200-
SOUTH GEORGIA

CITY           SKY/WX    TMP DP  RH WIND       PRES   REMARKS
SAVANNAH       CLOUDY    74  72  93 W3        29.92S FOG
VALDOSTA       PTCLDY    76  76 100 CALM      29.90S
ALMA           FOG       75  74  96 CALM      29.91S VSB 3/4
ST SIMONS      CLOUDY    77  75  93 SW7       29.91R
ALBANY         MOCLDY    76  74  93 N3        29.92S
HUNTER AFB     CLOUDY    74  74 100 W2        29.89S
MOODY AFB      CLOUDY    75  74  95 SE5       29.89S
BRUNSWICK      MOCLDY    75  73  94 S7        29.92R


CITY           SKY/WX    TMP DP  RH WIND       PRES   REMARKS
BAINBRIDGE*    FOG       79  77  94 NE3       29.89S VSB 1/2
MOULTRIE*      CLOUDY    75  73  94 CALM      29.91S FOG
VIDALIA*       CLOUDY    72  72 100 CALM      29.92S FOG
WAYCROSS*      FOG       78  78 100 CALM      29.91R VSB 1/4
DOUGLAS*       FOG       77  73  88 CALM      29.92S VSB 3/4
$$


USA.gov is the U.S. government's official web portal to all federal, state and local government web resources and services.